CW8429 Weather Reports


time (UTC)temp
C
wind
direction
speed
KPH
gust
KPH
rain 1hr
cm
rain 24hr
cm
rain mn
cm
humidity
%
barometer
mb
20260906234626 24 101 4.8 17.7 0.00 0.00 0.00 32 1014.0
20260906233616 24 13 3.2 9.7 0.00 0.00 0.00 31 1014.0
20260906232625 24 84 4.8 16.1 0.00 0.00 0.00 32 1014.2
20260906231618 24 192 4.8 16.1 0.00 0.00 0.00 31 1014.2
20260906230628 24 145 4.8 12.9 0.00 0.00 0.00 31 1014.1
20260906225631 25 238 4.8 14.5 0.00 0.00 0.00 31 1014.1
20260906224622 25 190 4.8 14.5 0.00 0.00 0.00 30 1014.3
20260906223616 25 154 6.4 16.1 0.00 0.00 0.00 29 1014.3
20260906222625 25 169 8.0 14.5 0.00 0.00 0.00 29 1014.4
20260906221616 25 134 8.0 27.4 0.00 0.00 0.00 28 1014.5
20260906220628 25 88 8.0 17.7 0.00 0.00 0.00 27 1014.5
20260906215630 25 99 11.3 20.9 0.00 0.00 0.00 28 1014.5
20260906214621 25 221 8.0 19.3 0.00 0.00 0.00 27 1014.5
20260906213631 25 304 9.7 17.7 0.00 0.00 0.00 26 1014.5
20260906212624 25 94 8.0 30.6 0.00 0.00 0.00 26 1014.5
20260906211636 26 86 14.5 27.4 0.00 0.00 0.00 22 1014.2
20260906210645 26 269 9.7 22.5 0.00 0.00 0.00 24 1014.5
20260906205625 26 230 8.0 20.9 0.00 0.00 0.00 25 1014.7
20260906204615 26 134 8.0 22.5 0.00 0.00 0.00 24 1014.8
20260906203627 26 153 14.5 24.1 0.00 0.00 0.00 23 1015.0
20260906202639 25 194 9.7 24.1 0.00 0.00 0.00 24 1014.8
20260906201629 25 160 16.1 32.2 0.00 0.00 0.00 24 1015.0
20260906200620 25 138 11.3 25.7 0.00 0.00 0.00 23 1015.1
20260906195626 25 173 9.7 25.7 0.00 0.00 0.00 24 1015.2
20260906194637 25 154 11.3 22.5 0.00 0.00 0.00 24 1015.2
20260906193647 25 76 11.3 22.5 0.00 0.00 0.00 23 1015.2
20260906192616 25 5 9.7 29.0 0.00 0.00 0.00 23 1015.3
20260906191629 25 295 14.5 27.4 0.00 0.00 0.00 22 1015.3
20260906190619 25 98 16.1 22.5 0.00 0.00 0.00 22 1015.2
20260906185621 25 148 11.3 24.1 0.00 0.00 0.00 22 1015.6
20260906184631 25 300 8.0 24.1 0.00 0.00 0.00 24 1015.7
20260906183646 25 137 14.5 25.7 0.00 0.00 0.00 22 1015.9
20260906182635 25 149 11.3 20.9 0.00 0.00 0.00 23 1016.1
20260906181622 25 311 9.7 22.5 0.00 0.00 0.00 23 1016.4
20260906180617 25 69 9.7 20.9 0.00 0.00 0.00 23 1016.7
20260906175619 24 110 12.9 22.5 0.00 0.00 0.00 24 1016.8
20260906174613 24 155 12.9 24.1 0.00 0.00 0.00 23 1016.9
20260906173644 24 188 8.0 17.7 0.00 0.00 0.00 25 1017.0
20260906172632 24 113 4.8 17.7 0.00 0.00 0.00 27 1017.1
20260906171621 23 173 6.4 20.9 0.00 0.00 0.00 26 1017.1
20260906170617 23 145 9.7 22.5 0.00 0.00 0.00 27 1017.1
20260906165620 23 39 4.8 11.3 0.00 0.00 0.00 34 1017.3
20260906164630 22 320 3.2 9.7 0.00 0.00 0.00 37 1017.4
20260906163621 21 292 8.0 9.7 0.00 0.00 0.00 45 1017.6
20260906162636 21 299 8.0 12.9 0.00 0.00 0.00 46 1017.6
20260906161625 20 316 8.0 19.3 0.00 0.00 0.00 47 1017.6
20260906160615 20 13 8.0 16.1 0.00 0.00 0.00 46 1017.7
20260906155616 21 306 8.0 12.9 0.00 0.00 0.00 44 1017.7
20260906154628 21 35 6.4 8.0 0.00 0.00 0.00 34 1017.7
20260906153617 21 13 1.6 4.8 0.00 0.00 0.00 35 1017.7
20260906152648 20 22 1.6 8.0 0.00 0.00 0.00 36 1017.8
20260906151616 18 290 1.6 6.4 0.00 0.00 0.00 41 1017.8
20260906150629 17 290 3.2 4.8 0.00 0.00 0.00 45 1017.9
20260906145631 16 290 0.0 0.0 0.00 0.00 0.00 47 1017.9
20260906144619 14 290 0.0 0.0 0.00 0.00 0.00 48 1017.9
20260906143629 13 290 0.0 3.2 0.00 0.00 0.00 48 1017.9
20260906142623 12 290 1.6 4.8 0.00 0.00 0.00 48 1017.9
20260906141613 12 290 0.0 8.0 0.00 0.00 0.00 47 1017.8
20260906140623 12 288 3.2 6.4 0.00 0.00 0.00 46 1017.9
20260906135624 13 131 1.6 4.8 0.00 0.00 0.00 43 1017.7
20260906134618 13 131 3.2 9.7 0.00 0.00 0.00 41 1017.7
20260906133628 13 117 6.4 12.9 0.00 0.00 0.00 41 1017.6
20260906132617 13 128 8.0 11.3 0.00 0.00 0.00 41 1017.5
20260906131612 12 134 6.4 11.3 0.00 0.00 0.00 42 1017.5
20260906130622 12 165 3.2 8.0 0.00 0.00 0.00 43 1017.5
20260906125624 12 309 0.0 3.2 0.00 0.00 0.00 44 1017.4
20260906124634 12 310 0.0 0.0 0.00 0.00 0.00 44 1017.4
20260906123622 13 310 0.0 4.8 0.00 0.00 0.00 41 1017.4
20260906122617 14 310 1.6 6.4 0.00 0.00 0.00 40 1017.3
20260906121627 15 194 1.6 6.4 0.00 0.00 0.00 36 1017.3
20260906120618 15 186 4.8 11.3 0.00 0.00 0.00 37 1017.3
20260906115621 14 255 1.6 11.3 0.00 0.00 0.00 38 1017.3
20260906114616 13 243 3.2 6.4 0.00 0.00 0.00 39 1017.3
20260906113628 13 167 0.0 6.4 0.00 0.00 0.00 39 1017.5
20260906112619 13 159 0.0 4.8 0.00 0.00 0.00 37 1017.4
20260906111636 14 159 3.2 9.7 0.00 0.00 0.00 36 1017.4
20260906110647 15 174 4.8 6.4 0.00 0.00 0.00 34 1017.5
20260906105650 15 174 1.6 6.4 0.00 0.00 0.00 33 1017.5
20260906104620 16 174 1.6 4.8 0.00 0.00 0.00 32 1017.4
20260906103631 16 174 4.8 8.0 0.00 0.00 0.00 31 1017.3
20260906102627 16 161 3.2 9.7 0.00 0.00 0.00 32 1017.2
20260906101618 15 161 8.0 9.7 0.00 0.00 0.00 33 1017.2
20260906100629 14 128 6.4 8.0 0.00 0.00 0.00 34 1017.2
20260906095653 14 127 4.8 8.0 0.00 0.00 0.00 33 1017.3
20260906094626 15 126 4.8 9.7 0.00 0.00 0.00 33 1017.0
20260906093637 15 117 4.8 9.7 0.00 0.00 0.00 33 1016.9
20260906092627 15 117 4.8 9.7 0.00 0.00 0.00 33 1016.9
20260906091618 15 116 4.8 9.7 0.00 0.00 0.00 33 1016.9
20260906090635 15 114 3.2 9.7 0.00 0.00 0.00 33 1016.8
20260906085617 15 325 3.2 4.8 0.00 0.00 0.00 33 1016.9
20260906084628 15 325 1.6 6.4 0.00 0.00 0.00 34 1016.8
20260906083619 15 323 3.2 8.0 0.00 0.00 0.00 34 1016.8
20260906082614 16 348 6.4 9.7 0.00 0.00 0.00 33 1016.7
20260906081626 16 256 0.0 6.4 0.00 0.00 0.00 32 1016.8
20260906080637 16 202 1.6 6.4 0.00 0.00 0.00 31 1016.9
20260906075620 16 204 0.0 4.8 0.00 0.00 0.00 32 1016.9
20260906074615 16 204 0.0 4.8 0.00 0.00 0.00 30 1016.9
20260906073626 16 204 3.2 6.4 0.00 0.00 0.00 31 1016.9
20260906072616 16 150 3.2 6.4 0.00 0.00 0.00 34 1016.9
20260906071627 16 140 0.0 4.8 0.00 0.00 0.00 31 1016.9
20260906070622 16 140 3.2 8.0 0.00 0.00 0.00 30 1016.9
20260906065626 16 140 3.2 11.3 0.00 0.00 0.00 30 1017.0
20260906064617 16 137 6.4 12.9 0.00 0.00 0.00 31 1016.9
20260906063613 15 107 9.7 14.5 0.00 0.00 0.00 33 1017.0
20260906062623 15 118 0.0 9.7 0.00 0.00 0.00 33 1017.0
20260906061614 15 116 8.0 12.9 0.00 0.00 0.00 34 1016.9
20260906060630 15 182 4.8 6.4 0.00 0.00 0.00 34 1017.0
20260906055629 15 271 0.0 1.6 0.00 0.00 0.00 35 1017.1
20260906054623 15 271 0.0 4.8 0.00 0.00 0.00 36 1016.9
20260906053631 15 271 3.2 6.4 0.00 0.00 0.00 35 1016.9
20260906052622 16 256 3.2 6.4 0.00 0.00 0.00 33 1016.9
20260906051614 17 236 6.4 16.1 0.00 0.00 0.00 29 1016.9
20260906050628 17 175 8.0 11.3 0.00 0.00 0.00 29 1016.9
20260906045650 18 242 3.2 16.1 0.00 0.00 0.00 27 1017.0
20260906044618 19 119 11.3 17.7 0.00 0.00 0.00 25 1017.0
20260906043627 19 80 12.9 19.3 0.00 0.00 0.00 25 1017.0
20260906042622 19 163 11.3 17.7 0.00 0.00 0.00 25 1017.0
20260906041613 19 86 12.9 20.9 0.00 0.00 0.00 25 1016.9
20260906040623 18 112 11.3 17.7 0.00 0.00 0.00 26 1016.7
20260906035646 19 134 9.7 14.5 0.00 0.00 0.00 26 1016.7
20260906034619 19 116 9.7 17.7 0.00 0.00 0.00 25 1016.6
20260906033630 19 115 14.5 20.9 0.00 0.00 0.00 25 1016.4
20260906032619 19 118 16.1 19.3 0.00 0.00 0.00 25 1016.5
20260906031647 19 82 12.9 17.7 0.00 0.00 0.00 25 1016.5
20260906030620 19 113 12.9 16.1 0.00 0.00 0.00 25 1016.3
20260906025622 20 117 12.9 16.1 0.00 0.00 0.00 25 1016.2
20260906024612 20 119 9.7 14.5 0.00 0.00 0.00 24 1016.3
20260906023622 20 121 11.3 14.5 0.00 0.00 0.00 24 1016.1
20260906022637 21 120 8.0 12.9 0.00 0.00 0.00 23 1016.0
20260906021648 21 135 6.4 11.3 0.00 0.00 0.00 22 1015.9
20260906020618 22 126 8.0 11.3 0.00 0.00 0.00 22 1015.9
20260906015621 22 143 4.8 8.0 0.00 0.00 0.00 22 1015.9
20260906014617 23 143 1.6 6.4 0.00 0.00 0.00 20 1015.9
20260906013649 24 174 0.0 9.7 0.00 0.00 0.00 21 1016.0
20260906012620 24 136 1.6 6.4 0.00 0.00 0.00 20 1016.1
20260906011631 25 238 3.2 8.0 0.00 0.00 0.00 20 1016.2
20260906010625 25 81 3.2 9.7 0.00 0.00 0.00 20 1016.2
20260906005627 25 83 6.4 12.9 0.00 0.00 0.00 18 1016.2
20260906004616 25 196 4.8 12.9 0.00 0.00 0.00 19 1016.1
20260906003625 25 169 4.8 12.9 0.00 0.00 0.00 19 1016.0
20260906002619 26 328 4.8 16.1 0.00 0.00 0.00 18 1016.0
20260906001629 26 196 8.0 20.9 0.00 0.00 0.00 17 1015.9
20260906000621 26 125 6.4 25.7 0.00 0.00 0.00 16 1015.9
20260905235622 26 130 8.0 24.1 0.00 0.00 0.00 16 1016.0